YAMAL 402

Last updated on Thu Aug 13 2026 00:02:59 GMT+0000 (Coordinated Universal Time)

1 39022U 12070A 26224.58292817 .00000068 00000+0 00000+0 0 9996 2 39022 1.4046 83.4036 0003589 56.9889 85.3780 1.00271807 49962
UTC large
Height (km)
Speed (km/s)
/
Latitude / Longitude
Inclination (degrees)
Orbital Period (minutes)
Azimuth
Elevation
Range (km)
Doppler Factor

Next 0 passes for location: London (51.5072 / 0.1276)

No passes found over London.
YAMAL 402